Location: Hurstbourne Priors
(51.2000°N, 1.3667°W)
Time: 22:59:37
(UTC+00:00)

Altair - Pass Details

Date: 12 April 2021
Orbit: 1501 x 1683 km, 47.2° (Epoch: 13 May)

Event Time Altitude Azimuth Distance (km) Brightness Sun altitude
Rises 14:30:29 0° 287° (WNW) 4,690 10.4 38.4°
Reaches altitude 10° 14:34:03 10° 277° (W) 3,685 10.1 38.0°
Maximum altitude 14:41:29 29° 222° (SW) 2,499 11.0 37.1°
Drops below altitude 10° 14:48:52 10° 168° (SSE) 3,644 9.9 36.2°
Sets 14:52:24 0° 157° (SSE) 4,629 10.2 35.7°
